GFSSW_2pvu_pres_267.txt.gz
Presure
133 203 204 191 211 192 173 202 161 111 196 159 186 145 124 119 122 120 123 113 125 120 125 128 120 125 127 126 127 122 112 109 121 105 117 124 124 118 110 110 122 118 122 110 111
236 177 225 171 197 205 212 195 182 212 185 176 175 172 112 127 118 121 110 124 105 129 118 113 120 127 127 130 124 111 112 110 122 109 115 122 113 126 111 116 130 128 113 116 104
259 199 234 231 182 184 219 225 218 214 224 209 218 184 149 209 109 120 120 125 130 116 126 127 126 122 129 133 138 113 117 114 117 122 129 129 120 110 111 113 112 123 125 116 113
230 103 230 216 230 236 229 226 242 208 210 224 219 236 217 111 105 188 110 133 114 119 105 120 118 122 125 132 120 130 106 114 99 84 122 123 120 114 124 112 124 126 119 122 109
314 247 243 184 150 258 238 174 236 228 225 214 220 228 151 222 211 114 206 116 131 121 128 112 111 127 115 129 128 121 112 122 93 128 126 86 123 111 125 120 123 118 124 127 124
271 295 269 237 256 193 255 256 237 229 201 215 223 201 213 206 215 209 124 224 118 172 118 131 112 110 125 124 130 129 121 126 119 85 95 124 91 125 98 106 123 126 117 112 120
236 269 289 280 238 259 221 233 128 228 227 230 232 220 204 207 219 232 241 139 118 115 118 121 120 119 121 122 129 130 128 85 78 107 122 134 118 114 115 116 118 116 123 125 107
255 258 256 279 288 240 257 114 251 254 249 235 235 234 199 213 234 227 236 239 155 127 112 118 103 122 125 110 123 118 125 113 95 75 120 120 131 112 124 124 116 108 116 118 120
229 245 250 238 275 259 131 244 245 208 245 218 239 245 261 242 228 215 176 114 190 224 117 148 137 119 121 122 123 119 116 120 121 127 120 116 128 133 117 124 126 119 120 116 129
254 229 241 248 257 272 268 267 222 251 230 240 225 265 221 246 244 236 221 237 154 251 250 193 137 119 121 109 116 124 133 116 125 132 121 120 121 120 125 128 106 119 118 113 113
196 235 192 254 240 254 274 242 238 239 236 237 137 253 96 248 246 246 264 226 119 245 118 209 181 141 104 104 110 119 123 128 126 116 125 124 126 125 126 133 128 127 130 126 110
227 190 234 175 240 228 252 280 270 240 245 236 239 231 251 243 233 247 247 218 202 235 251 247 203 205 134 139 124 90 117 117 119 129 113 122 126 133 100 103 116 110 121 115 130
194 210 211 219 237 249 259 264 279 240 230 252 229 223 221 224 243 264 193 266 222 234 239 238 233 151 164 117 114 155 119 112 117 121 115 120 116 125 127 124 127 103 122 113 124
214 218 221 234 198 247 271 253 261 253 231 236 242 243 247 238 245 256 259 261 233 220 223 248 247 219 213 162 189 125 145 186 110 114 122 132 122 117 107 118 121 131 131 137 117
208 217 213 225 222 235 251 243 259 261 247 228 201 233 232 216 249 246 250 256 226 223 227 237 250 224 208 192 193 183 124 127 118 115 106 97 122 119 122 120 123 125 129 131 111
214 217 220 193 236 217 244 254 259 239 256 281 242 225 239 237 246 238 242 243 242 226 233 228 245 239 215 210 158 124 126 151 145 127 125 123 114 118 107 110 129 125 131 130 130
209 215 222 224 214 231 233 253 263 238 234 262 295 219 239 239 237 232 237 238 245 243 226 222 226 128 226 215 213 198 122 130 156 193 122 120 121 126 129 109 118 112 122 112 114
217 217 219 195 237 219 237 255 260 258 240 238 271 205 236 237 232 231 323 333 332 260 239 224 217 239 217 218 215 211 206 207 149 129 176 106 113 143 120 118 123 128 128 124 119
210 224 218 224 237 243 251 263 242 256 231 264 247 278 241 234 229 238 308 308 312 297 240 246 220 220 241 221 216 207 217 200 217 201 134 171 127 130 129 129 119 116 123 125 114
238 230 234 230 246 242 263 251 232 276 254 236 266 270 236 231 230 235 297 290 286 300 262 237 230 213 232 240 220 215 206 212 207 218 153 175 188 150 125 116 126 141 122 115 123
235 255 244 243 234 233 262 255 273 285 275 253 276 255 244 239 227 231 273 280 279 285 280 228 228 205 225 241 228 216 213 209 205 209 214 210 191 171 169 149 131 141 171 156 151
245 245 246 243 246 264 246 240 313 295 283 259 281 247 277 238 230 224 251 263 274 272 264 234 227 227 214 245 230 213 215 210 207 204 210 200 199 197 192 187 190 199 205 202 197
249 249 247 253 260 241 254 277 299 297 283 286 280 267 263 239 234 225 236 257 264 275 259 255 234 234 223 246 243 230 217 211 205 201 205 210 204 199 192 184 144 202 189 182 183
253 230 246 242 245 264 299 301 286 277 282 285 277 277 239 272 233 222 225 248 257 258 263 234 238 240 221 245 233 226 209 206 206 202 200 203 203 203 195 192 202 202 201 199 195
293 299 330 313 303 321 304 300 273 272 284 275 268 275 281 276 237 227 224 240 250 214 254 242 228 243 226 225 234 225 226 178 212 203 202 199 203 206 201 197 195 195 197 197 195
294 302 295 296 293 289 280 287 274 251 289 274 280 289 285 242 268 230 226 225 239 252 248 242 238 236 225 232 238 236 226 213 198 211 205 203 198 190 192 196 195 183 188 191 192
276 284 282 271 268 275 274 267 271 262 272 273 257 313 290 290 283 241 227 223 226 240 248 245 251 239 243 226 232 235 229 227 205 198 203 231 202 194 193 191 192 191 191 190 182

GFSSW_2pvu_pres_270.txt.gz
Presure
227 224 216 224 205 214 195 208 210 216 213 169 197 202 209 205 124 163 114 115 122 119 114 127 125 131 130 137 115 105 116 117 113 117 105 110 116 102 95 105 116 123 121 115 117
220 273 235 226 187 181 195 205 205 210 209 213 205 183 223 212 148 138 151 121 119 115 107 115 119 129 131 119 133 112 108 119 123 110 108 110 111 121 105 112 121 124 106 122 122
293 346 246 268 247 271 229 201 185 203 206 219 195 192 219 132 154 136 126 120 120 108 127 122 117 131 123 131 118 115 110 114 118 124 110 106 93 110 122 140 120 121 121 124 120
223 260 327 285 258 254 252 219 205 195 196 200 196 178 128 209 223 145 219 117 109 118 114 124 120 113 123 129 129 125 103 109 117 119 111 79 98 115 93 123 113 137 124 120 115
236 242 268 314 309 261 242 263 229 238 184 215 198 196 142 164 212 187 174 119 124 117 117 114 106 129 115 117 120 126 119 109 109 114 120 104 109 121 126 121 129 126 125 118 128
220 230 253 261 302 327 255 261 254 259 244 224 201 205 185 221 191 213 218 220 233 125 118 116 119 135 120 102 119 122 130 110 111 111 108 125 124 99 133 121 118 117 126 121 118
192 229 209 262 246 290 310 261 250 263 240 230 228 196 190 200 216 207 222 219 222 104 235 133 123 129 129 124 128 121 127 119 117 95 84 93 108 127 115 103 95 115 120 131 108
187 194 230 200 233 261 255 306 275 244 263 250 264 243 220 216 239 195 206 116 213 228 117 119 116 125 115 110 114 126 117 121 65 112 92 118 120 122 83 79 84 124 111 121 120
199 226 217 242 208 224 260 276 298 279 247 263 239 256 236 234 238 221 212 216 223 208 124 239 179 248 123 114 117 114 117 119 122 123 119 116 91 110 119 126 121 104 131 118 117
205 221 224 228 243 241 267 253 264 297 271 244 218 227 264 250 237 229 220 204 222 216 232 233 201 172 110 125 136 107 112 112 101 117 102 78 110 120 119 123 120 127 128 116 125
196 177 218 215 223 236 203 239 265 259 286 96 248 256 241 253 249 231 231 227 204 208 208 247 215 239 154 114 165 108 119 122 121 121 83 100 101 123 124 119 117 128 122 120 104
189 195 199 212 207 195 227 193 263 250 255 97 280 253 248 238 238 209 269 269 215 186 230 230 229 234 118 202 130 115 104 125 116 119 121 122 133 119 119 127 125 117 131 128 121
207 209 203 207 199 229 207 211 242 258 249 274 270 265 248 251 235 233 247 238 262 251 202 210 220 231 237 206 182 118 113 112 121 115 111 116 118 123 126 131 122 124 123 113 118
208 191 199 223 189 211 231 236 219 246 254 210 294 259 266 240 242 244 234 240 249 247 244 232 243 224 244 245 233 123 113 132 120 108 123 130 120 118 130 122 120 127 131 113 115
226 230 180 202 227 226 225 245 241 220 229 240 248 293 254 245 242 248 229 235 245 246 252 251 181 224 130 188 203 229 137 118 113 135 107 125 129 118 121 118 128 113 125 121 118
220 224 181 229 216 228 228 234 236 232 241 240 249 241 274 245 232 243 243 237 254 236 240 245 252 249 187 236 220 240 221 142 213 128 141 139 103 111 115 127 126 134 124 116 121
218 232 206 218 232 239 233 217 210 217 246 249 243 246 242 258 243 232 254 242 225 234 235 248 258 267 217 180 228 128 132 226 150 163 189 107 137 117 108 107 121 134 129 114 115
223 226 230 221 224 232 241 247 242 226 241 242 251 257 246 244 277 232 236 242 252 256 257 252 265 259 242 217 214 231 241 231 219 125 201 158 116 117 125 119 129 130 126 126 130
222 224 226 217 217 231 238 242 260 242 250 238 252 249 261 248 256 259 239 233 241 238 247 250 253 251 250 225 205 229 239 220 229 205 214 144 154 216 119 123 119 127 132 131 124
219 225 227 227 230 232 239 254 250 254 247 230 246 259 247 263 253 273 256 246 243 244 241 244 241 245 245 226 220 216 224 231 232 180 221 211 176 183 206 207 124 152 145 131 126
221 232 229 241 239 233 235 243 254 245 244 248 256 257 252 261 267 249 294 246 246 245 243 237 241 243 240 240 221 222 223 227 250 246 98 120 208 131 150 126 121 175 186 193 174
227 231 240 247 249 254 263 249 244 242 251 245 252 247 232 274 281 274 269 255 250 247 242 234 235 235 243 237 227 228 212 227 230 249 224 210 206 204 203 199 134 127 132 172 123
236 241 251 246 238 248 242 239 244 232 248 254 252 244 249 304 286 262 253 273 253 247 238 233 309 304 253 248 242 225 228 215 228 231 243 212 203 205 204 201 204 209 189 192 189
257 250 244 247 290 287 278 303 287 292 293 303 254 253 277 300 289 261 264 272 251 247 238 231 303 290 290 287 237 234 233 215 209 230 227 230 211 202 205 205 209 208 211 204 209
272 285 298 313 332 329 316 299 309 285 314 307 300 292 291 299 291 270 269 250 256 243 240 233 282 281 274 279 280 247 228 233 212 207 229 221 212 207 199 197 203 205 201 207 205
321 260 284 282 279 300 295 300 306 295 290 295 308 295 293 268 289 284 272 254 261 243 87 231 264 274 280 263 269 234 226 235 224 217 222 240 230 211 213 201 198 200 200 201 201
293 286 284 276 275 269 272 275 272 278 289 293 317 293 290 265 297 289 282 256 262 248 237 237 236 266 272 264 257 255 234 230 224 212 211 224 231 221 209 207 200 200 199 196 195

GFSSW_2pvu_pres_276.txt.gz
Presure
254 234 255 224 219 225 225 217 146 205 205 201 186 207 205 164 163 199 104 117 188 130 124 130 131 126 117 119 118 110 118 119 125 116 101 98 109 114 112 112 112 103 127 111 120
238 249 245 256 250 254 233 216 220 218 203 210 180 200 208 211 190 134 192 113 142 126 179 155 124 132 112 113 115 109 110 121 122 112 113 104 105 110 122 117 94 111 128 126 115
217 249 228 239 258 247 240 256 224 216 217 197 211 202 200 182 221 210 194 193 122 119 117 177 109 119 120 119 112 119 121 113 126 124 128 107 108 112 122 108 100 125 103 120 118
233 240 225 221 228 248 252 256 248 221 231 223 214 215 211 194 188 212 172 197 163 120 104 118 121 126 115 120 118 125 125 129 120 114 124 110 117 120 117 117 109 99 116 108 107
207 225 219 240 257 229 252 239 241 260 283 256 224 221 216 216 212 209 209 219 182 209 141 214 111 108 125 118 122 118 124 113 115 118 120 119 124 69 124 121 109 93 104 111 108
208 208 213 224 233 216 245 253 227 278 224 331 274 250 226 215 209 213 209 170 215 209 211 185 108 152 126 113 111 127 128 109 113 121 126 123 121 123 119 125 122 118 112 97 89
205 198 211 209 221 197 214 226 258 225 282 284 334 307 258 211 221 211 208 217 205 216 209 114 121 125 107 120 121 115 127 122 117 119 120 118 116 113 122 87 86 126 111 117 118
200 197 205 204 208 214 225 216 232 238 237 271 269 325 301 245 272 225 206 206 222 195 215 209 122 115 105 107 127 131 119 111 117 130 117 127 125 125 113 127 92 116 122 125 112
216 219 216 175 206 203 214 204 200 223 211 262 272 283 303 289 251 256 232 219 205 211 218 214 210 212 213 141 212 112 112 116 113 127 124 110 122 125 111 119 121 107 122 122 118
206 211 216 172 194 214 201 199 214 205 232 245 260 284 278 294 296 273 244 216 216 216 212 213 219 112 121 117 181 115 117 112 143 113 112 115 119 86 129 126 122 120 127 132 119
210 203 215 207 231 242 197 195 202 208 210 220 228 262 290 279 291 291 261 272 250 217 206 211 214 209 109 208 164 217 117 113 112 115 119 122 130 112 124 138 117 131 116 119 122
215 216 214 198 207 227 223 228 224 201 201 200 211 222 248 278 267 286 279 253 266 235 213 210 216 213 195 217 220 149 229 127 117 129 132 125 121 124 121 116 126 126 127 128 119
203 206 206 197 220 217 210 239 225 210 214 211 221 220 225 253 272 278 285 274 263 257 224 212 209 214 223 214 210 212 205 116 184 118 102 121 126 105 127 132 106 104 122 111 108
201 206 212 211 208 225 199 228 226 230 211 223 201 215 229 226 240 273 280 289 278 260 254 253 216 203 203 190 125 209 173 230 170 216 119 124 81 131 124 103 98 99 89 81 130
205 215 215 216 225 218 219 174 226 218 241 246 200 207 204 208 225 239 273 277 289 241 255 256 260 247 218 214 208 108 190 211 115 129 143 122 144 119 127 124 118 94 129 130 85
198 202 207 212 212 216 206 224 214 231 227 242 224 236 218 215 210 232 234 271 270 289 243 250 246 251 240 230 226 208 217 160 181 140 212 149 111 123 119 161 116 134 124 127 87
194 205 203 209 212 208 218 223 218 213 234 235 235 233 243 211 209 221 222 233 269 269 282 239 252 244 253 245 230 223 182 221 120 209 201 124 121 194 111 118 83 122 124 128 108
205 201 200 204 202 208 210 226 211 214 221 228 229 228 243 230 241 222 245 234 233 228 270 277 244 255 238 246 251 231 226 229 137 221 169 149 129 118 95 115 141 119 126 129 124
195 214 213 209 207 212 210 213 220 225 230 218 226 246 249 238 236 245 240 235 238 83 268 268 269 245 247 222 239 254 242 234 234 237 234 177 111 199 228 216 134 120 127 134 133
217 214 224 223 214 215 216 211 215 222 208 214 228 242 239 241 232 238 236 243 244 83 248 276 269 256 247 242 240 239 234 142 240 239 239 242 232 137 155 182 130 99 188 129 124
205 225 222 233 244 240 221 217 231 228 216 223 232 235 246 251 256 260 252 255 252 254 235 248 273 267 259 243 238 245 232 239 122 264 245 248 224 144 197 115 230 87 178 127 133
218 230 213 245 230 246 245 242 246 236 240 242 250 254 256 240 245 248 269 262 240 256 255 252 257 268 268 256 233 246 245 240 244 250 245 247 251 242 249 216 118 75 131 227 93
227 239 248 228 230 234 237 232 247 247 244 253 261 260 251 239 245 244 241 261 265 258 264 248 272 271 261 264 250 243 240 235 233 250 248 247 240 235 235 115 217 205 132 122 90
238 246 240 250 246 254 247 249 248 240 248 251 255 257 250 259 261 269 271 259 255 261 259 248 257 248 268 260 255 242 241 239 234 236 234 251 227 235 236 246 251 216 194 183 236
248 272 270 289 279 285 265 245 265 255 245 242 255 269 306 315 327 328 337 279 259 252 265 259 256 261 256 265 257 263 240 235 246 245 240 241 113 240 221 227 244 240 223 209 227
299 293 277 261 278 327 328 326 316 314 314 315 307 302 303 305 303 304 311 309 291 259 255 263 256 262 272 248 265 259 274 244 245 266 250 149 233 240 228 235 244 235 226 217 202
275 249 252 253 242 245 283 282 293 295 296 296 298 301 299 301 303 292 303 307 334 293 272 247 254 265 258 256 248 272 264 278 242 245 247 248 250 247 235 249 243 232 221 222 216

GFSSW_2pvu_pres_279.txt.gz
Presure
244 255 265 259 161 220 215 215 199 208 207 203 196 188 200 202 212 161 163 172 167 129 124 149 104 126 119 119 121 111 116 120 129 115 121 116 105 112 115 122 121 109 112 115 108
255 236 241 251 258 269 252 230 214 225 210 191 204 201 191 198 206 215 183 197 111 164 110 122 134 112 126 106 111 112 116 119 118 118 104 117 84 101 112 123 112 117 112 116 114
236 227 221 224 221 252 263 262 268 224 229 215 211 190 204 209 196 204 194 180 212 104 152 110 119 168 140 115 106 119 118 117 114 120 116 68 130 122 100 96 111 109 102 114 125
220 221 222 227 242 243 219 250 157 255 260 230 229 212 214 217 198 199 200 184 200 213 107 117 162 125 128 148 130 104 115 120 115 119 118 116 123 114 116 109 111 115 101 116 102
203 206 218 210 224 234 237 217 220 247 259 244 262 234 229 221 214 199 207 175 206 212 147 181 165 179 119 142 125 118 126 122 122 120 118 119 121 96 124 102 100 120 106 97 130
222 217 205 209 195 228 231 228 213 219 244 253 252 281 250 232 215 207 204 205 206 208 195 179 188 183 204 157 106 131 123 123 122 114 114 126 124 125 119 94 117 103 90 115 103
210 223 227 216 203 212 219 202 223 232 260 228 243 248 261 245 225 225 207 212 165 204 212 216 214 112 180 145 192 187 111 124 122 110 111 117 125 121 83 116 122 126 130 98 103
207 199 212 217 228 229 208 199 218 200 244 259 217 256 298 241 239 235 224 214 220 208 207 105 220 212 182 183 109 200 113 121 119 124 119 134 117 116 112 130 83 124 124 86 96
207 211 210 210 214 219 230 228 218 213 228 207 235 262 255 279 252 301 296 232 212 219 215 218 160 220 127 112 116 119 121 130 122 125 110 132 123 132 125 122 117 119 123 125 124
210 212 214 206 211 208 211 225 246 214 211 206 224 214 246 231 281 289 324 287 238 205 217 217 221 151 188 113 193 204 115 119 123 117 126 131 124 78 131 137 114 121 108 122 128
219 213 219 222 202 206 216 200 218 249 233 211 221 200 213 237 273 295 285 317 281 258 223 229 213 213 217 222 168 198 212 117 210 127 116 118 136 59 128 125 136 117 98 122 125
217 224 223 214 206 211 209 195 193 219 232 240 213 190 233 223 214 260 276 277 309 270 268 232 216 207 214 197 209 169 210 106 152 108 140 129 120 155 132 132 126 136 124 96 111
216 204 214 214 210 208 209 209 205 205 215 228 231 220 232 197 220 210 228 288 273 305 265 259 254 234 207 207 217 213 215 110 172 114 165 149 148 139 120 122 128 126 138 125 117
207 216 215 201 202 208 219 214 213 218 193 196 223 231 227 229 222 227 239 225 283 269 300 248 268 232 234 223 211 210 208 208 211 119 75 137 117 138 118 125 123 125 124 134 123
198 207 208 216 218 202 205 207 214 213 224 205 188 224 231 240 229 220 235 232 238 280 270 302 260 260 227 220 224 220 206 212 218 121 107 125 142 132 126 120 171 117 125 137 136
206 205 210 212 219 209 209 210 212 214 214 208 193 206 222 226 237 233 223 220 220 232 281 270 292 255 246 233 222 212 215 211 213 215 213 155 174 124 116 180 120 126 129 124 125
213 197 203 218 214 216 210 213 207 211 214 219 215 223 213 216 229 235 236 242 242 227 226 272 272 288 249 251 250 247 221 215 215 120 173 188 151 214 98 65 96 98 131 129 126
211 205 204 196 205 213 202 217 218 221 220 203 222 221 227 209 221 227 236 229 231 239 239 236 268 270 283 247 252 245 232 218 216 201 217 76 117 207 133 94 113 124 69 111 135
205 205 200 195 204 212 211 205 213 218 222 226 219 226 222 213 221 223 224 232 249 243 245 261 250 264 275 283 246 250 248 227 221 216 212 143 162 122 84 149 133 221 126 119 124
202 202 200 203 206 195 204 214 211 204 219 230 236 225 215 217 227 225 215 227 232 220 229 228 257 244 251 276 284 241 248 248 245 239 230 142 195 142 206 88 162 125 176 137 166
201 203 192 203 210 197 220 228 232 230 245 219 237 244 242 233 226 203 197 220 234 240 244 238 221 258 256 242 276 277 242 244 244 250 246 241 240 174 82 119 211 116 196 127 133
202 194 205 206 224 220 233 230 236 246 241 248 244 247 248 249 231 229 233 241 232 242 240 246 245 249 253 250 238 273 279 249 242 83 245 162 236 216 82 226 172 220 86 80 201
212 227 231 244 235 231 233 235 237 255 240 259 254 251 246 242 252 252 246 251 247 257 265 257 266 254 248 261 259 237 274 191 247 247 241 240 256 230 229 229 229 234 235 201 210
228 239 238 232 231 233 240 237 251 283 277 283 275 265 263 261 248 250 248 257 262 264 265 251 247 263 273 247 188 250 252 266 269 244 247 252 203 243 246 247 240 237 229 200 134
233 229 235 241 241 229 238 301 313 311 324 275 287 305 313 273 275 261 273 250 246 252 253 246 253 245 258 259 259 256 253 256 270 278 252 244 249 224 232 246 247 251 251 234 228
234 227 256 233 286 333 273 272 261 254 252 257 263 320 331 329 307 267 265 280 247 255 266 247 257 260 248 261 249 253 248 247 264 270 274 248 243 239 236 229 229 249 244 243 236
290 286 296 291 283 260 252 250 242 282 290 261 274 295 267 293 308 314 315 323 319 309 321 323 308 300 294 257 258 262 259 259 257 269 264 271 75 121 250 235 240 241 233 230 231

GFSSW_2pvu_pres_282.txt.gz
Presure
226 232 266 259 266 267 256 240 197 199 192 193 188 200 186 186 199 198 184 148 166 116 116 111 147 139 123 102 110 126 114 114 120 120 114 111 102 119 121 115 105 112 127 105 102
232 225 221 264 244 246 253 271 270 242 237 188 200 185 185 182 183 205 198 168 193 165 101 176 111 165 119 117 117 125 119 126 114 123 119 123 115 113 103 116 114 110 106 118 115
199 228 236 238 228 234 244 247 251 266 278 238 201 215 194 210 185 185 180 206 175 199 188 129 117 159 133 143 128 108 119 134 128 123 116 101 130 116 115 111 115 114 115 108 116
205 222 227 227 220 215 212 230 231 235 256 265 232 221 202 213 206 215 191 211 207 186 152 180 155 115 159 117 164 115 127 130 124 126 130 122 108 127 120 105 121 114 122 119 118
195 210 212 214 227 215 223 232 228 253 236 249 261 267 240 228 216 210 211 202 206 182 193 205 195 184 111 204 129 115 133 114 124 118 122 122 112 133 80 106 83 101 102 97 116
207 186 205 220 215 229 225 238 223 222 239 252 232 215 272 252 225 222 212 209 201 206 195 208 180 210 151 114 172 129 136 131 112 113 118 120 118 125 103 120 116 92 119 113 116
220 228 228 216 214 213 224 200 205 242 223 250 247 226 236 267 268 266 225 221 205 213 200 207 217 178 212 111 116 198 121 178 120 113 112 121 125 124 118 116 123 128 122 102 121
204 223 212 225 218 211 204 215 227 232 240 186 224 234 257 231 258 258 261 231 232 214 213 205 203 215 199 212 112 113 115 144 160 121 121 120 111 114 129 119 120 126 119 110 114
212 228 235 233 221 217 210 209 212 220 224 215 240 205 231 243 236 240 261 287 241 233 211 220 207 117 204 179 195 124 117 200 123 134 133 142 117 142 125 116 120 126 129 127 123
191 211 225 223 217 229 218 215 215 213 211 222 222 232 240 221 234 269 237 234 261 254 232 226 217 208 202 207 194 216 178 128 144 132 128 145 123 123 127 126 117 130 120 133 121
192 199 210 224 216 226 229 222 210 206 219 217 207 240 192 215 209 213 231 279 298 244 358 220 227 217 201 153 208 198 213 222 175 133 204 128 137 125 124 123 133 128 119 123 119
200 201 202 215 218 215 218 224 211 216 209 220 220 221 201 248 251 214 217 223 262 273 256 343 222 224 222 212 214 202 206 188 220 114 198 134 202 112 142 132 113 129 140 122 124
187 197 199 197 210 204 220 205 218 215 211 218 207 210 208 225 195 209 242 240 226 235 298 291 320 237 232 223 222 219 217 197 210 128 122 188 201 157 181 134 119 123 128 118 127
191 179 192 196 202 208 208 211 225 203 215 221 218 221 229 221 211 236 237 219 219 231 230 266 286 321 279 236 224 212 217 214 125 201 200 134 100 206 92 128 113 186 131 127 112
192 195 189 195 196 208 209 207 214 214 227 208 208 203 220 223 228 220 237 182 247 205 230 235 242 283 317 270 233 226 214 198 217 202 132 177 117 124 185 140 126 132 116 137 133
204 197 186 195 205 202 213 211 205 219 217 224 215 210 209 216 219 217 209 217 225 201 248 210 225 238 276 307 263 260 231 222 218 221 213 174 148 164 115 131 100 126 130 121 136
185 186 198 196 203 206 224 217 204 203 210 220 216 212 213 213 212 218 213 196 219 213 194 238 233 241 237 276 302 259 261 237 227 218 217 218 156 137 215 75 130 118 138 135 120
183 196 198 201 206 219 210 209 212 204 202 206 212 205 217 225 215 209 208 216 222 217 225 236 250 253 224 236 275 304 256 259 228 239 225 215 152 111 132 160 102 66 109 128 141
194 191 199 205 217 210 206 201 218 214 207 207 206 206 219 215 219 227 225 208 217 224 216 229 250 247 246 249 228 268 301 262 255 250 240 163 227 225 189 203 211 222 116 98 80
204 204 207 212 205 205 207 205 199 194 206 203 210 198 201 211 219 220 225 236 220 223 227 222 230 231 239 247 253 225 243 278 274 254 257 232 232 230 212 166 80 211 223 147 99
211 206 207 199 201 205 200 197 209 220 202 200 209 227 220 243 227 243 229 236 231 246 228 216 211 224 217 246 256 243 250 234 270 287 248 257 256 229 212 208 207 206 132 227 207
204 199 209 203 209 209 203 232 215 224 234 227 233 252 236 233 236 235 243 233 250 240 243 242 223 218 208 228 232 239 245 252 238 277 293 256 264 243 195 228 185 212 91 142 142
211 212 213 212 209 216 227 233 225 229 254 246 248 240 238 240 244 234 237 259 255 255 248 209 260 219 214 213 228 226 247 239 254 238 265 283 285 239 231 239 234 220 217 177 181
233 233 240 234 231 246 242 237 249 250 243 232 238 247 250 237 238 242 243 267 269 258 256 243 249 255 209 213 218 227 222 242 228 253 252 251 214 259 241 233 235 152 220 218 222
253 250 253 249 242 250 246 256 253 250 250 242 237 259 243 309 311 311 309 307 297 276 254 258 256 249 262 253 203 218 256 244 238 249 267 271 259 287 235 65 67 229 229 228 239
264 259 241 265 253 242 255 255 260 297 290 291 312 312 286 272 280 280 275 340 295 323 312 276 270 260 249 251 253 245 258 253 252 250 260 254 251 231 285 249 231 236 237 233 237
290 291 292 293 288 289 301 293 287 298 296 281 273 265 259 260 254 245 267 256 275 276 263 310 289 275 273 252 252 263 264 258 243 258 255 253 264 218 265 277 216 240 200 234 238

GFSSW_2pvu_pres_285.txt.gz
Presure
214 225 235 239 243 256 270 252 284 258 199 189 192 126 195 181 182 172 182 165 208 109 140 181 167 132 123 118 117 110 140 126 124 117 125 118 119 128 134 130 113 121 107 105 109
207 212 208 222 234 234 230 260 265 268 283 188 204 192 194 196 189 191 187 176 167 171 176 164 123 124 112 138 140 151 113 150 134 126 117 118 124 83 93 122 132 124 131 115 101
209 203 214 218 227 228 240 242 258 256 254 264 269 224 188 188 198 192 162 134 194 181 96 128 147 187 153 109 135 134 122 126 135 135 113 116 122 118 110 93 159 122 123 113 109
203 208 207 205 211 220 232 229 241 240 256 256 254 269 299 252 196 211 186 196 183 194 179 213 187 133 114 177 119 189 143 113 132 107 117 116 120 127 138 165 114 140 127 113 129
198 196 212 217 210 196 213 221 235 243 225 239 237 250 268 288 260 238 194 189 198 180 191 176 199 183 115 114 140 119 174 123 124 111 114 121 121 122 99 143 69 132 131 121 108
204 193 207 218 228 243 239 212 220 218 243 248 236 251 246 260 271 257 242 200 205 189 135 196 213 163 200 187 113 170 174 118 120 122 113 120 116 123 120 89 131 123 107 115 122
197 201 211 208 223 227 244 237 225 220 231 244 232 226 231 266 244 261 281 238 208 183 200 185 191 200 177 196 209 107 117 154 120 122 127 124 117 126 129 121 133 130 89 89 100
197 201 209 201 201 227 230 242 231 225 210 211 222 236 213 233 186 238 255 279 236 217 195 216 204 142 209 181 178 192 178 157 136 116 173 127 138 129 134 137 128 125 100 108 125
200 202 198 204 201 205 225 233 228 238 227 216 216 203 224 212 226 236 248 244 266 244 230 219 220 217 189 125 202 178 200 133 138 183 134 139 187 118 127 119 138 133 121 123 124
197 196 197 185 201 203 213 228 227 230 231 237 215 224 226 226 208 223 242 248 263 260 257 234 218 218 218 200 207 143 182 193 202 174 130 120 134 124 151 119 119 118 117 119 123
191 194 191 182 193 201 202 206 225 223 232 232 229 211 223 217 230 227 230 232 240 236 249 265 260 216 227 225 195 194 196 216 183 200 190 95 163 127 135 128 117 120 135 136 138
174 186 193 198 189 189 196 208 208 217 227 225 223 224 210 217 224 241 243 219 233 240 251 246 253 252 225 221 227 221 203 205 212 176 171 189 211 208 163 134 134 117 131 120 118
189 194 198 197 186 192 196 197 205 210 220 227 212 223 214 213 218 211 218 223 215 221 232 243 255 255 255 237 225 226 222 205 202 159 157 177 146 130 112 120 188 126 83 124 125
193 207 184 182 186 194 200 188 197 207 213 214 216 223 216 229 224 201 227 244 224 204 235 220 239 254 312 251 250 229 225 216 220 197 184 155 214 92 129 195 153 135 137 131 119
189 192 198 179 190 190 191 205 200 198 207 213 209 221 222 221 211 221 233 199 226 233 207 225 219 237 243 295 241 302 229 223 223 224 211 96 212 216 159 212 142 130 124 131 132
199 203 200 200 196 203 201 186 196 202 209 217 233 203 212 216 223 216 211 222 202 207 233 229 220 219 230 237 265 290 317 231 223 220 223 219 210 164 214 218 111 119 106 141 131
196 195 198 196 199 193 200 200 198 203 215 226 225 207 196 206 218 225 215 220 214 224 194 213 231 246 212 229 231 253 290 319 252 223 224 177 223 224 223 140 151 206 78 120 166
200 201 202 195 196 197 204 206 202 201 210 212 220 207 218 204 204 212 216 215 224 234 227 223 233 222 188 211 252 245 245 277 324 282 182 215 188 232 184 79 227 82 203 141 124
205 198 201 203 204 206 207 204 198 207 219 219 215 216 213 218 218 214 195 210 212 224 230 216 224 210 227 223 203 209 254 237 253 288 281 268 223 235 228 221 224 217 146 131 168
212 207 210 213 207 206 208 212 206 214 211 213 212 216 207 207 202 208 209 211 206 215 221 230 223 212 220 227 214 232 236 249 254 249 273 296 265 270 230 160 218 208 144 157 205
226 220 217 217 216 213 213 216 210 217 204 208 206 209 214 215 219 229 229 218 213 213 211 234 232 227 227 219 224 218 229 225 194 250 244 267 298 257 159 246 236 179 234 124 224
249 235 232 225 219 220 218 216 216 214 221 210 208 211 214 207 214 223 227 231 225 235 260 240 255 224 222 221 233 226 224 222 234 246 263 244 270 289 118 254 207 239 236 237 222
275 264 257 250 246 238 239 234 238 228 221 217 219 220 214 225 224 230 237 236 259 249 243 257 251 246 241 219 223 245 227 228 235 239 246 265 263 245 282 184 63 245 233 239 249
302 302 283 260 256 250 249 254 254 257 246 234 241 238 245 235 237 243 244 260 260 247 253 246 243 254 249 239 231 239 244 227 229 237 238 251 262 256 247 265 263 159 247 241 242
310 293 288 309 312 288 264 258 263 255 245 248 251 256 258 249 254 252 255 257 248 240 234 252 250 254 252 242 239 228 248 242 227 230 231 232 244 258 239 220 267 275 230 250 249
317 288 287 304 303 293 305 306 306 308 307 270 246 251 246 250 245 258 248 255 258 256 239 256 250 247 251 255 257 261 256 249 221 254 233 228 234 66 206 247 214 267 273 252 249
318 319 299 272 268 275 281 279 281 288 292 295 296 296 300 305 307 303 297 301 299 294 317 331 305 328 329 301 294 294 257 256 253 246 247 215 218 219 258 247 252 232 259 216 245

GFSSW_2pvu_pres_288.txt.gz
Presure
210 216 215 220 227 233 246 254 262 251 274 213 217 195 193 196 196 153 176 185 179 106 195 194 208 114 125 110 130 123 133 121 120 132 126 129 104 120 106 115 122 110 116 128 122
209 210 207 204 210 216 219 229 241 251 251 282 286 221 188 195 191 200 193 169 188 165 201 194 170 211 192 173 127 117 164 121 114 119 129 134 130 110 113 119 126 133 118 110 124
206 197 198 208 213 198 209 230 232 228 250 246 277 284 245 196 185 198 194 195 152 183 175 146 199 186 112 194 125 160 120 116 154 109 122 114 138 113 120 120 128 109 120 127 125
197 200 201 202 204 209 209 212 200 227 232 236 248 266 275 269 285 178 194 195 200 136 184 179 116 205 182 179 139 105 168 143 126 128 110 116 117 125 87 130 130 79 173 117 130
184 196 197 187 195 207 200 227 237 221 221 240 229 240 257 271 271 298 203 192 195 195 181 185 183 178 210 155 111 132 163 180 122 137 121 111 124 125 121 130 96 126 89 111 144
206 204 203 201 206 200 221 216 229 250 255 232 236 250 234 241 255 272 280 260 200 191 200 178 173 181 186 173 116 138 142 128 135 121 113 156 122 120 129 133 141 142 107 136 171
196 195 189 182 206 206 212 208 209 238 266 246 224 224 236 230 238 257 267 283 277 208 187 194 197 187 183 185 174 123 118 114 145 162 126 127 114 154 110 130 126 79 151 79 100
197 191 190 198 202 204 203 208 206 212 241 253 234 222 223 240 232 234 246 268 80 265 253 228 198 188 183 188 189 126 182 195 138 120 185 163 122 177 116 127 94 145 85 113 110
195 186 197 196 197 203 202 192 203 210 222 240 232 244 230 216 241 221 232 249 262 267 267 248 240 200 182 181 186 186 214 130 204 174 122 147 177 121 131 132 124 128 107 119 118
204 201 202 202 197 197 201 185 196 202 208 219 232 242 230 234 237 244 216 228 246 261 258 270 239 236 207 190 194 178 198 180 137 208 116 119 147 189 129 129 132 135 136 138 130
197 196 195 192 187 184 193 199 209 192 199 212 214 237 241 245 223 226 240 227 217 245 253 254 270 235 236 214 195 194 180 205 176 190 113 184 124 183 99 122 175 140 129 142 143
195 197 197 200 200 195 200 204 206 192 200 198 209 215 230 232 232 222 232 229 238 212 240 251 255 264 238 234 198 190 192 179 202 184 180 144 169 127 129 126 144 145 163 125 132
191 190 195 203 188 198 198 216 196 193 200 206 199 205 225 220 222 226 227 227 218 245 225 241 249 245 272 249 234 216 187 205 178 187 201 181 94 119 163 126 123 111 134 159 161
195 197 197 194 192 200 202 199 203 187 200 202 215 198 212 221 212 230 227 215 228 210 245 217 226 246 233 271 274 239 225 221 211 208 192 212 204 176 87 149 126 128 173 164 133
207 205 197 186 201 201 193 207 198 204 202 200 195 203 205 207 216 212 226 221 226 216 246 251 214 233 246 240 270 293 256 228 222 206 219 200 213 213 192 180 115 175 175 145 136
208 203 207 203 202 202 204 202 205 209 207 210 199 194 196 206 212 232 219 232 222 234 226 238 230 208 229 233 241 259 284 267 233 224 220 224 222 211 217 179 112 148 178 190 96
238 221 211 205 206 206 205 206 205 203 211 208 189 201 199 207 215 226 244 223 227 231 227 225 231 236 214 217 223 238 248 271 275 243 240 216 219 233 200 206 207 205 151 166 124
236 221 237 224 213 210 209 204 203 210 208 202 200 205 206 210 207 214 227 229 217 219 223 201 225 229 222 229 214 216 231 247 260 278 225 228 226 231 231 235 212 195 206 210 125
293 295 250 235 233 224 217 220 213 210 208 206 203 210 214 206 206 217 229 217 222 214 218 223 206 205 221 235 229 244 232 214 232 244 255 234 312 239 233 225 230 212 215 211 203
354 283 322 260 243 237 227 231 217 221 218 215 217 220 214 208 206 212 227 227 210 224 206 216 218 215 202 222 221 214 232 215 204 227 219 256 266 150 310 246 228 134 220 230 223
374 353 354 376 255 239 238 233 223 229 223 222 220 219 218 215 218 215 221 221 221 213 219 211 217 209 206 214 221 233 213 227 240 243 253 229 254 253 268 298 246 228 224 113 225
355 345 341 337 345 273 250 241 240 230 223 219 221 221 216 216 217 217 222 214 217 217 217 208 221 227 197 201 213 218 235 232 236 241 244 225 72 213 243 251 279 286 234 230 232
353 341 332 331 339 344 279 265 262 244 235 231 234 227 223 222 223 223 223 221 227 215 222 222 219 221 206 204 205 222 232 236 237 239 246 231 205 89 196 158 180 230 109 184 279
354 338 334 324 323 320 323 329 276 266 254 251 246 248 240 235 235 237 235 240 231 223 221 221 225 235 236 213 197 236 232 251 245 248 241 249 220 233 205 243 236 239 257 66 178
367 342 331 323 316 310 311 313 318 307 263 260 258 254 251 244 242 246 250 249 247 247 236 245 247 254 247 249 232 233 236 251 248 253 248 241 93 206 197 220 246 242 242 84 272
382 352 337 324 306 320 305 306 299 296 300 301 303 275 265 261 255 246 240 242 241 255 257 255 257 262 265 270 255 253 240 249 246 247 250 253 248 63 239 240 225 237 247 241 250
406 379 341 333 316 306 318 305 291 289 288 274 279 302 310 311 307 300 291 287 270 238 245 250 248 251 258 256 269 264 239 233 244 245 247 261 258 254 255 229 239 221 235 250 260